{"data":{"norad_id":52332,"intl_designator":"2022-045B","name":"STARLINK-3831","alt_names":[],"object_type":"PAYLOAD","status":"ACTIVE","operator":null,"country":"US","launch_date":"2022-04-29","launch_site_code":"AFETR","launch_vehicle":null,"mission":null,"orbit_class":"UNKNOWN","rcs_meters":null,"size_class":null,"mass_kg":null,"dimensions":null,"purposes":["comms"],"wikipedia_slug":null,"has_3d_model":false,"image_url":null,"decayed_at":null,"tle_current":{"epoch":"2026-09-20T01:02:16.387872Z","epoch_age_seconds":99141,"freshness":"FRESH","line1":"1 52332U 22045B   26263.04324523  .00013094  00000+0  40833-3 0  9997","line2":"2 52332  53.1595  53.5639 0000892  77.0963 283.0138 15.33582611245019","mean_motion":15.33582611,"eccentricity":8.92e-5,"inclination_deg":53.1595,"raan_deg":53.5639,"arg_perigee_deg":77.0963,"mean_anomaly_deg":283.0138,"bstar":0.00040833,"rev_number":24501,"period_min":93.897778291906,"perigee_km":464.52335182316,"apogee_km":465.74419132881,"semimajor_km":6843.270771576,"source":"CELESTRAK","updated_at":"2026-09-20T09:00:40.021123Z"}}}